Location: Baix
(44.7118°N, 4.7648°E)
Time: 17:09:57
(UTC+00:00)

Cosmos 1328 - Pass Details

Date: 07 August 2020
Orbit: 537 x 547 km, 82.5° (Epoch: 23 September)

Event Time Altitude Azimuth Distance (km) Brightness Sun altitude
Rises 03:53:25 0° 347° (NNW) 2,719 7.6 -7.3°
Reaches altitude 10° 03:55:37 10° 343° (NNW) 1,823 6.7 -6.9°
Maximum altitude 03:59:33 57° 265° (W) 651 3.9 -6.3°
Drops below altitude 10° 04:03:27 10° 187° (S) 1,812 6.1 -5.7°
Sets 04:05:37 0° 183° (S) 2,701 7.0 -5.4°
